Regional Weather Roundup
Issued by NWS Little Rock, AR

Home | Current Version | Previous Version | Text Only | Print | Product List | Glossary On
Versions: 1 2 3 4 5 6 7 8 9 10 11 12 13 14 15 16 17 18 19 20 21 22 23 24 25 26 27 28 29 30 31 32 33 34 35 36 37 38 39 40 41 42 43 44 45 46 47
000
ASUS44 KLZK 052205
RWRLZK

WEATHER ROUNDUP FOR ARKANSAS
NATIONAL WEATHER SERVICE LITTLE ROCK AR
500 PM CDT SUN JUL 05 2015

NOTE: "FAIR" INDICATES FEW OR NO CLOUDS BELOW 12,000 FEET WITH NO
SIGNIFICANT WEATHER AND/OR OBSTRUCTIONS TO VISIBILITY.

ARZ001-003-010-029-052300-
NORTHWEST ARKANSAS

CITY           SKY/WX    TMP DP  RH WIND       PRES   REMARKS
FAYETTEVILLE   MOSUNNY   86  74  67 S9        29.99F HX  94
FORT SMITH     PTSUNNY   90  73  57 S10       29.94F HX  98
HARRISON       CLOUDY    69  67  93 S6        30.03F
BENTONVILLE    MOSUNNY   88  72  58 S8        30.01S HX  94
ROGERS         MOSUNNY   89  74  60 S9        30.00F HX  98
SILOAM SPGS    MOSUNNY   90  73  58 S8        29.99F HX  98
HIGHFILL       MOSUNNY   88  75  65 S12       29.99F HX  97
SPRINGDALE     MOSUNNY   88  73  62 S8        30.02F HX  96
$$

ARZ004-005-016-052300-
NORTH CENTRAL ARKANSAS

CITY           SKY/WX    TMP DP  RH WIND       PRES   REMARKS
BATESVILLE     MOSUNNY   84  73  70 S3        30.01F HX  91
FLIPPIN          N/A     79  73  83 E5        29.99F
MTN HOME       PTSUNNY   80  70  71 CALM      30.00F
$$

ARZ040-041-052300-
WEST CENTRAL ARKANSAS

CITY           SKY/WX    TMP DP  RH WIND       PRES   REMARKS
MENA           CLOUDY    86  75  70 CALM      30.01F HX  95
MOUNT IDA      CLOUDY    83  77  82 CALM      29.99F HX  92
$$

ARZ009-017-025-026-028-052300-
NORTHEAST ARKANSAS

CITY           SKY/WX    TMP DP  RH WIND       PRES   REMARKS
JONESBORO      MOSUNNY   83  72  69 S10       30.02F HX  88
NEWPORT        MOSUNNY   85  75  71 S9        30.03F HX  93
WALNUT RIDGE   SUNNY     84  72  65 S10       30.01S HX  89
BLYTHEVILLE    SUNNY     86  73  65 SW9       30.02F HX  93
$$

ARZ022-023-033-042-044-052300-
CENTRAL ARKANSAS

CITY           SKY/WX    TMP DP  RH WIND       PRES   REMARKS
LITTLE ROCK    CLOUDY    80  71  74 S10       30.02F
N LITTLE ROCK  CLOUDY    81  76  85 S9G17     30.02F HX  87
JACKSONVILLE   CLOUDY    82  74  79 S9        30.01F HX  87
SEARCY         PTSUNNY   79  73  83 S14       30.03F
HOT SPRINGS    PTSUNNY   87  73  62 W7        30.00F HX  94
RUSSELLVILLE   CLOUDY    85  76  74 S6        30.00R HX  94
CLINTON        FAIR      84  77  79 E3        30.01S HX  94
$$

ARZ036-052300-
EAST ARKANSAS

CITY           SKY/WX    TMP DP  RH WIND       PRES   REMARKS
WEST MEMPHIS   MOSUNNY   81  72  74 SW8       30.03F HX  85
$$

ARZ050-053-066-070-073-052300-
SOUTHWEST ARKANSAS

CITY           SKY/WX    TMP DP  RH WIND       PRES   REMARKS
ARKADELPHIA    LGT RAIN  76  75  96 S5        30.02R FOG
CAMDEN         CLOUDY    72  68  88 MISG      30.02F
TEXARKANA      MOSUNNY   90  72  55 W8        29.98F HX  97
EL DORADO      CLOUDY    72  69  90 E3        30.04F
DE QUEEN       PTSUNNY   91  75  59 SW7       29.95F HX 101
$$

ARZ056-057-069-052300-
SOUTHEAST ARKANSAS

CITY           SKY/WX    TMP DP  RH WIND       PRES   REMARKS
PINE BLUFF     MOSUNNY   80  69  69 S12       30.02F
STUTTGART      CLOUDY    81  72  74 MISG      30.01F
MONTICELLO     CLOUDY    74  69  85 SW5       30.03F

$$





USA.gov is the U.S. government's official web portal to all federal, state and local government web resources and services.